Weather History for KFYV - July, 2013

Change the Weather History Date:

Monday, July 22, 2013

  Actual Average Record
Temperature  
Mean Temperature 83 °F 78 °F  
Max Temperature 93 °F 89 °F 104 °F (1974)
Min Temperature 72 °F 67 °F 47 °F (1970)
Cooling Degree Days 18 13  
Month to date cooling degree days 254 273  
Year to date cooling degree days 680 631  
Since 1 June cooling degree days 544 518  
Growing Degree Days 32 (Base 50)    
Moisture  
Dew Point 66 °F    
Average Humidity 63    
Maximum Humidity 82    
Minimum Humidity 44    
Precipitation  
Precipitation 0.00 in 0.10 in 2.02 in (1950)
Month to date precipitation 1.17 2.59  
Year to date precipitation 26.64 27.78  
Sea Level Pressure  
Sea Level Pressure 29.89 in    
Wind  
Wind Speed 7 mph (SSW)    
Max Wind Speed 17 mph    
Max Gust Speed 24 mph    
Visibility 10 miles    
Events Thunderstorm    
T = Trace of Precipitation, MM = Missing Value Source: NWS Daily Summary

Daily Weather History Graph

Daily Weather History Graph

Search for Another Location

Airport or City:

Trip Planner

Search our weather history database for the weather conditions in past years. The results will help you decide how hot, cold, wet, or windy it might be!

Date:

Astronomy

Jul. 22, 2013 Rise Set
Actual Time 6:16 AM CDT 8:29 PM CDT
Civil Twilight 5:47 AM CDT 8:58 PM CDT
Nautical Twilight 5:12 AM CDT 9:33 PM CDT
Astronomical Twilight 4:33 AM CDT 10:12 PM CDT
Moon 8:19 PM CDT (7/22) 6:11 AM CDT (7/22)
Length of Visible Light 15h 10m
Length of Day
14h 12m
Full, 100% of the Moon is Illuminated
Jul 22
Full
Jul 22
Full
Jul 29
Last Quarter
Aug 6
New
Aug 14
First Quarter

Hourly Weather History & Observations

Time (CDT) Temp. Heat Index Dew Point Humidity Pressure Visibility Wind Dir Wind Speed Gust Speed Precip Events Conditions
12:53 AM 78.1 °F - 69.1 °F 74% 29.85 in 10.0 mi SSW 8.1 mph - N/A   Clear
1:53 AM 78.1 °F - 69.1 °F 74% 29.85 in 10.0 mi South 8.1 mph - N/A   Partly Cloudy
2:19 AM 78.8 °F - 69.8 °F 74% 29.92 in 10.0 mi East 10.4 mph - N/A Thunderstorm Mostly Cloudy
2:34 AM 78.8 °F - 68.0 °F 69% 29.94 in 10.0 mi NE 10.4 mph - N/A   Overcast
2:53 AM 75.0 °F - 62.1 °F 64% 29.89 in 10.0 mi Calm Calm - N/A   Mostly Cloudy
3:02 AM 75.2 °F - 60.8 °F 61% 29.92 in 10.0 mi ESE 11.5 mph 18.4 mph N/A Thunderstorm Partly Cloudy
3:17 AM 75.2 °F - 62.6 °F 65% 29.91 in 10.0 mi SW 3.5 mph - N/A   Clear
3:53 AM 73.0 °F - 64.0 °F 73% 29.85 in 10.0 mi South 6.9 mph - N/A   Clear
4:53 AM 77.0 °F - 69.1 °F 76% 29.83 in 10.0 mi SSW 9.2 mph - N/A   Clear
5:53 AM 75.9 °F - 69.1 °F 79% 29.85 in 10.0 mi SSW 11.5 mph - N/A   Clear
6:42 AM 73.4 °F - 66.2 °F 78% 29.96 in 10.0 mi NE 13.8 mph 24.2 mph N/A   Overcast
6:53 AM 73.0 °F - 64.9 °F 76% 29.92 in 10.0 mi ENE 15.0 mph 24.2 mph N/A   Overcast
7:53 AM 72.0 °F - 61.0 °F 68% 29.95 in 10.0 mi ENE 8.1 mph 17.3 mph N/A   Overcast
8:53 AM 75.0 °F - 62.1 °F 64% 29.96 in 10.0 mi ENE 6.9 mph - N/A   Mostly Cloudy
9:53 AM 81.0 °F 82.2 °F 63.0 °F 54% 29.92 in 10.0 mi Variable 3.5 mph - N/A   Clear
10:53 AM 82.0 °F 83.8 °F 64.9 °F 56% 29.94 in 10.0 mi NW 3.5 mph - N/A   Clear
11:53 AM 75.0 °F - 64.0 °F 69% 29.98 in 10.0 mi NNW 6.9 mph - N/A   Mostly Cloudy
12:53 PM 79.0 °F - 64.0 °F 60% 29.94 in 10.0 mi Calm Calm - N/A   Scattered Clouds
1:53 PM 87.1 °F 88.3 °F 64.0 °F 46% 29.90 in 10.0 mi South 8.1 mph - N/A   Clear
2:53 PM 91.9 °F 95.4 °F 66.9 °F 44% 29.88 in 10.0 mi SW 6.9 mph - N/A   Clear
3:53 PM 90.0 °F 94.5 °F 69.1 °F 50% 29.88 in 10.0 mi WSW 10.4 mph - N/A   Clear
4:53 PM 87.1 °F 92.0 °F 70.0 °F 57% 29.86 in 10.0 mi NNW 6.9 mph - N/A   Mostly Cloudy
5:53 PM 86.0 °F 91.5 °F 71.1 °F 61% 29.86 in 10.0 mi WSW 11.5 mph 16.1 mph N/A   Overcast
6:53 PM 84.9 °F 87.1 °F 66.0 °F 53% 29.86 in 10.0 mi SSW 12.7 mph - N/A   Clear
7:53 PM 82.0 °F 83.1 °F 63.0 °F 52% 29.86 in 10.0 mi SSW 3.5 mph - N/A   Clear
8:53 PM 80.1 °F 81.1 °F 61.0 °F 52% 29.86 in 10.0 mi South 3.5 mph - N/A   Clear
9:53 PM 78.1 °F - 64.0 °F 62% 29.86 in 10.0 mi Calm Calm - N/A   Clear
10:53 PM 79.0 °F - 68.0 °F 69% 29.86 in 10.0 mi SW 5.8 mph - N/A   Clear
11:53 PM 79.0 °F - 69.1 °F 72% 29.88 in 10.0 mi SW 4.6 mph - N/A   Clear